{"data":{"norad_id":66808,"epoch":"2026-05-25T01:24:51.913152Z","epoch_age_seconds":70199,"freshness":"FRESH","line1":"1 66808U 25278T   26145.05893418  .00004322  00000+0  16652-3 0  9991","line2":"2 66808  42.9983  42.6491 0001403 273.8525  86.2166 15.27569060 26896","mean_motion":15.2756906,"eccentricity":0.0001403,"inclination_deg":42.9983,"raan_deg":42.6491,"arg_perigee_deg":273.8525,"mean_anomaly_deg":86.2166,"bstar":0.00016652,"rev_number":2689,"period_min":94.267423824361,"perigee_km":482.11922552551,"apogee_km":484.04448353609,"semimajor_km":6861.2188545308,"source":"CELESTRAK","updated_at":"2026-05-25T13:38:21.330311Z"}}